FW1828 Weather Reports


time (UTC)temp
C
wind
direction
speed
KPH
gust
KPH
rain 1hr
cm
rain 24hr
cm
rain mn
cm
humidity
%
barometer
mb
20260508124506 10 130 1.6 4.8 0.00 0.28 0.03 90 1019.6
20260508123006 8 223 1.6 3.2 0.00 0.28 0.03 96 1019.4
20260508121600 7 164 1.6 4.8 0.00 0.28 0.03 96 1019.5
20260508114556 5 213 0.0 4.8 0.03 0.30 0.03 96 1019.1
20260508111556 3 206 0.0 3.2 0.03 0.30 0.03 96 1018.5
20260508110113 3 46 0.0 6.4 0.03 0.30 0.03 95 1018.2
20260508104550 3 269 0.0 3.2 0.00 0.28 0.00 95 1017.8
20260508101548 3 269 0.0 6.4 0.00 0.28 0.00 95 1017.5
20260508100037 3 253 0.0 3.2 0.00 0.28 0.00 95 1017.3
20260508094538 4 269 0.0 1.6 0.00 0.28 0.00 95 1017.3
20260508091533 4 46 0.0 3.2 0.00 0.28 0.00 95 1016.8
20260508090052 4 279 1.6 3.2 0.00 0.28 0.00 95 1016.7
20260508084531 5 269 0.0 1.6 0.00 0.28 0.00 95 1016.6
20260508081528 5 63 0.0 4.8 0.00 0.28 0.00 95 1016.5
20260508080034 5 72 0.0 3.2 0.00 0.28 0.00 95 1016.3
20260508074533 5 324 0.0 3.2 0.00 0.28 0.00 95 1016.4
20260508071525 6 178 1.6 4.8 0.00 0.28 0.00 95 1016.2
20260508070018 6 89 0.0 1.6 0.00 0.28 0.00 95 1016.1
20260508064516 5 127 1.6 4.8 0.00 0.28 0.00 95 1016.0
20260508061518 6 1 0.0 3.2 0.00 0.28 0.00 94 1015.8
20260508060016 6 46 0.0 3.2 0.00 0.28 0.00 95 1016.0
20260508054514 6 117 0.0 3.2 0.00 0.28 0.00 94 1016.0
20260508051508 6 56 0.0 3.2 0.00 0.28 0.00 94 1015.6
20260508050006 6 63 0.0 3.2 0.00 0.28 0.00 94 1015.5
20260508044507 7 1 0.0 4.8 0.00 0.28 0.00 94 1015.5
20260508041508 7 331 0.0 3.2 0.00 0.28 0.00 93 1015.2
20260508040008 7 1 0.0 3.2 0.00 0.28 0.28 93 1015.0
20260508034503 7 314 3.2 8.0 0.00 0.28 0.28 93 1014.9
20260508031603 7 269 3.2 4.8 0.00 0.28 0.28 92 1014.8
20260508030111 8 135 1.6 4.8 0.00 0.41 0.28 91 1014.5
20260508024553 8 46 0.0 4.8 0.00 0.41 0.28 90 1014.5
20260508021536 10 178 0.0 3.2 0.00 0.41 0.28 86 1013.8
20260508020032 11 223 0.0 3.2 0.00 0.43 0.28 82 1013.7
20260508014533 12 102 1.6 8.0 0.00 0.43 0.28 71 1013.5
20260508011532 13 32 4.8 8.0 0.00 0.43 0.28 69 1012.7
20260508010038 13 348 4.8 9.7 0.00 0.51 0.28 67 1012.7
20260508004528 13 338 1.6 8.0 0.00 0.51 0.28 67 1012.6
20260508001532 13 331 0.0 4.8 0.00 0.51 0.28 74 1012.4
20260508000022 15 46 3.2 9.7 0.00 0.51 0.28 70 1012.5
20260507234520 16 344 4.8 19.3 0.00 0.51 0.28 69 1012.3
20260507231514 16 310 3.2 6.4 0.00 0.51 0.28 77 1012.1
20260507230014 16 46 4.8 9.7 0.00 0.51 0.28 78 1011.8
20260507224514 16 1 1.6 4.8 0.00 0.51 0.28 87 1011.6
20260507221519 15 1 3.2 8.0 0.00 0.51 0.28 90 1011.2
20260507220018 15 298 8.0 11.3 0.00 0.51 0.28 89 1011.1
20260507214514 15 89 3.2 8.0 0.00 0.51 0.28 89 1010.5
20260507211509 16 89 1.6 8.0 0.00 0.51 0.28 87 1010.1
20260507210023 16 117 1.6 4.8 0.00 0.51 0.28 90 1009.8
20260507204508 16 63 0.0 6.4 0.00 0.51 0.28 90 1009.8
20260507201516 16 100 1.6 14.5 0.00 0.51 0.28 90 1009.6
20260507200021 15 53 3.2 17.7 0.08 0.51 0.28 91 1009.6
20260507194511 16 46 3.2 11.3 0.13 0.51 0.28 91 1009.8
20260507191523 16 89 1.6 8.0 0.20 0.51 0.28 93 1009.8
20260507190019 15 197 1.6 6.4 0.18 0.48 0.25 93 1010.0
20260507184513 15 89 1.6 4.8 0.08 0.38 0.15 92 1010.2
20260507181512 16 74 1.6 17.7 0.00 0.30 0.08 87 1009.9
20260507180011 17 89 3.2 11.3 0.00 0.33 0.08 82 1009.6
20260507174514 18 56 1.6 11.3 0.00 0.33 0.08 80 1009.5
20260507171511 19 56 1.6 20.9 0.00 0.33 0.08 86 1009.8
20260507170011 19 49 1.6 8.0 0.00 0.33 0.08 84 1009.7
20260507164508 20 59 1.6 11.3 0.00 0.33 0.08 87 1009.8
20260507161613 19 56 0.0 11.3 0.00 0.33 0.08 90 1009.8
20260507160115 19 117 0.0 4.8 0.00 0.33 0.08 92 1009.6
20260507154556 18 40 1.6 4.8 0.00 0.33 0.08 93 1009.8
20260507151552 19 135 3.2 6.4 0.00 0.33 0.08 89 1010.0
20260507150050 19 206 3.2 8.0 0.00 0.33 0.08 90 1010.1
20260507144557 18 89 0.0 4.8 0.00 0.33 0.08 93 1010.4
20260507141552 17 210 1.6 4.8 0.00 0.33 0.08 96 1010.5
20260507140048 17 127 0.0 6.4 0.00 0.33 0.08 96 1010.3
20260507134549 17 231 1.6 4.8 0.00 0.33 0.08 96 1010.3
20260507131542 17 335 0.0 3.2 0.05 0.33 0.08 97 1010.3
20260507130042 17 89 0.0 1.6 0.05 0.33 0.08 97 1010.3